Vertical_Velocity
-1 -0 1 1 0 -1 -1 -1 -0 0 -0 -2 -2 -1 -2 -2 -1 -3 -4 -3 -2 -4
1 1 1 0 0 1 -0 1 -1 -2 -2 -2 -1 -1 -1 -2 -2 -3 -2 -2 -1 -3
0 0 0 0 1 0 0 -1 -1 -1 -1 -2 -2 -2 -2 -2 -1 -1 -2 -3 -3 -9
-0 -0 0 0 1 0 -1 -1 -1 -1 -1 -1 -2 -2 -3 -1 -2 -2 -2 -8 -5 -3
-0 0 1 1 -0 -1 -1 -1 -1 -1 -2 -3 -2 -2 -1 -2 -3 -5 -6 -5 -5 1
0 1 1 0 -0 0 -0 1 -1 -2 -1 -1 -1 -2 -3 -3 -3 -5 -3 -2 -2 -0
0 1 1 1 -1 0 1 -2 -2 -1 -1 -1 -2 -4 -4 -5 -5 -3 1 1 -0 1
2 1 -1 -0 1 -0 -1 -0 -1 -1 -1 -3 -3 -6 -5 -5 -3 0 1 1 -1 1
1 0 1 1 -1 -0 -1 -2 -1 -0 -2 -4 -3 -5 -3 -4 -1 1 -0 -1 2 0
1 1 -0 -0 -0 -0 0 -0 0 -1 -3 -3 -3 -2 -1 -1 -1 -2 -0 -0 -0 1
-1 -1 1 1 0 -1 1 1 -2 -3 -4 -1 1 -1 -2 -2 -1 -1 1 1 -2 -3
-1 -0 -0 -1 1 1 -1 -2 -1 -1 1 -0 -0 -1 -2 -2 -1 2 2 3 1 -3
-2 -2 0 0 -0 -1 -1 -1 -1 0 -3 -2 -2 -1 -4 -2 -1 2 0 1 -1 3
0 -1 -1 -2 -2 -0 -1 -0 -1 2 0 -2 -4 -4 -4 -2 -3 -4 1 -2 4 4
Height
5767 5765 5763 5761 5759 5756 5752 5748 5744 5739 5735 5730 5725 5720 5714 5707 5700 5693 5685 5677 5668 5660
5759 5757 5755 5753 5750 5746 5743 5738 5734 5729 5725 5719 5713 5707 5700 5693 5685 5677 5668 5659 5650 5640
5751 5749 5747 5744 5741 5737 5733 5729 5724 5719 5713 5707 5700 5694 5686 5678 5669 5660 5651 5641 5631 5619
5743 5741 5738 5735 5732 5728 5723 5718 5712 5706 5699 5693 5686 5678 5670 5661 5652 5642 5631 5620 5610 5599
5735 5732 5729 5726 5723 5718 5712 5706 5700 5693 5686 5679 5670 5662 5653 5643 5633 5622 5610 5599 5590 5582
5726 5723 5721 5717 5712 5706 5700 5694 5687 5679 5671 5663 5654 5645 5635 5624 5613 5602 5593 5582 5573 5564
5717 5715 5711 5706 5701 5694 5687 5680 5673 5664 5656 5647 5637 5626 5615 5605 5596 5586 5575 5565 5555 5547
5709 5705 5700 5695 5688 5681 5674 5666 5658 5649 5640 5630 5619 5607 5597 5587 5578 5567 5557 5547 5538 5530
5699 5694 5688 5682 5675 5668 5660 5651 5642 5634 5623 5612 5600 5589 5578 5568 5559 5549 5539 5531 5521 5511
5688 5682 5676 5669 5662 5653 5645 5637 5627 5616 5605 5593 5581 5570 5560 5550 5540 5531 5521 5510 5501 5492
5676 5670 5663 5655 5647 5639 5631 5621 5610 5599 5587 5576 5564 5553 5543 5533 5524 5514 5502 5491 5480 5470
5663 5655 5649 5642 5635 5625 5615 5605 5593 5581 5570 5558 5547 5535 5526 5516 5507 5497 5485 5474 5461 5448
5649 5643 5637 5628 5619 5610 5599 5588 5576 5564 5552 5541 5530 5519 5509 5499 5488 5479 5469 5457 5442 5428
5637 5629 5621 5613 5603 5593 5583 5571 5560 5549 5537 5525 5513 5501 5491 5480 5468 5458 5448 5437 5425 5413